When you browse on this site, cookies collect data to enhance your experience and personalize the content and advertising you see.
Visit our Privacy Policy to learn more. By continuing to use the site, you agree to this use of cookies and data.
  • In Portugal
  • List of Countries
  • For 7 days
  • Water Temperature
  • Satellite Maps
  • Weather Map
  • Weather Widgets
  • user-avatar
    Login

    Hourly Weather Bochkary

    Today, 16 November, Friday

    Time Temperature Precipitation Wind Pressure Humidity
    00:00 +1°C° 0 mm 1 mps 764 mmHg 94%
    01:00 +1°C° 0 mm 1 mps 764 mmHg 94%
    02:00 +1°C° 0 mm 1 mps 765 mmHg 94%
    03:00 +1°C° 0 mm 1 mps 765 mmHg 94%
    04:00 +1°C° 0 mm 1 mps 765 mmHg 94%
    05:00 +1°C° 0 mm 1 mps 765 mmHg 94%
    06:00 0°C° 0 mm 1 mps 765 mmHg 93%
    07:00 0°C° 0 mm 1 mps 766 mmHg 93%
    08:00 -1°C° 0 mm 1 mps 766 mmHg 93%
    09:00 0°C° 0 mm 1 mps 766 mmHg 89%
    10:00 +1°C° 0 mm 1 mps 767 mmHg 86%
    11:00 +2°C° 0 mm 1 mps 767 mmHg 83%
    12:00 +2°C° 0 mm 1 mps 767 mmHg 82%
    13:00 +2°C° 0 mm 1 mps 767 mmHg 82%
    14:00 +2°C° 0 mm 1 mps 767 mmHg 81%
    15:00 +1°C° 0 mm 1 mps 767 mmHg 81%
    16:00 0°C° 0 mm 1 mps 767 mmHg 82%
    17:00 -1°C° 0 mm 1 mps 767 mmHg 82%
    18:00 -2°C° 0 mm 1 mps 767 mmHg 81%
    19:00 -2°C° 0 mm 1 mps 767 mmHg 79%
    20:00 -2°C° 0 mm 1 mps 767 mmHg 77%
    21:00 -2°C° 0 mm 1 mps 767 mmHg 76%
    22:00 -2°C° 0 mm 1 mps 767 mmHg 74%
    23:00 -2°C° 0 mm 1 mps 767 mmHg 72%

    Tomorrow, 17 November, Saturday

    Time Temperature Precipitation Wind Pressure Humidity
    00:00 -2°C° 0 mm 1 mps 767 mmHg 71%
    01:00 -2°C° 0 mm 1 mps 767 mmHg 69%
    02:00 -2°C° 0 mm 1 mps 767 mmHg 67%
    03:00 -2°C° 0 mm 1 mps 767 mmHg 66%
    04:00 -2°C° 0 mm 1 mps 767 mmHg 65%
    05:00 -2°C° 0 mm 1 mps 767 mmHg 64%
    06:00 -2°C° 0 mm 1 mps 766 mmHg 64%
    07:00 -2°C° 0 mm 1 mps 766 mmHg 63%
    08:00 -2°C° 0 mm 1 mps 766 mmHg 63%
    09:00 -1°C° 0 mm 1 mps 766 mmHg 63%
    10:00 0°C° 0 mm 1 mps 766 mmHg 63%
    11:00 +2°C° 0 mm 1 mps 766 mmHg 62%
    12:00 +1°C° 0 mm 2 mps 765 mmHg 64%
    13:00 +1°C° 0 mm 2 mps 764 mmHg 66%
    14:00 +2°C° 0 mm 2 mps 764 mmHg 67%
    15:00 +1°C° 0 mm 2 mps 763 mmHg 69%
    16:00 0°C° 0 mm 3 mps 763 mmHg 71%
    17:00 -1°C° 0 mm 3 mps 762 mmHg 73%
    18:00 -1°C° 0 mm 3 mps 761 mmHg 77%
    19:00 -1°C° 0 mm 3 mps 761 mmHg 80%
    20:00 -2°C° 0 mm 3 mps 760 mmHg 84%
    21:00 -1°C° 0 mm 3 mps 759 mmHg 86%
    22:00 -2°C° 0 mm 4 mps 759 mmHg 89%
    23:00 -1°C° 0 mm 4 mps 758 mmHg 92%

    Day after tomorrow, 18 November, Sunday

    Time Temperature Precipitation Wind Pressure Humidity
    00:00 -1°C° 0 mm 4 mps 757 mmHg 92%
    01:00 -1°C° 0 mm 4 mps 756 mmHg 93%
    02:00 0°C° 0 mm 4 mps 756 mmHg 94%
    03:00 0°C° 0.1 mm 4 mps 755 mmHg 94%
    04:00 0°C° 0.1 mm 4 mps 754 mmHg 95%
    05:00 0°C° 0.1 mm 4 mps 753 mmHg 95%
    06:00 0°C° 0.1 mm 4 mps 752 mmHg 95%
    07:00 0°C° 0.1 mm 4 mps 752 mmHg 95%
    08:00 0°C° 0.1 mm 4 mps 751 mmHg 96%
    09:00 0°C° 0.1 mm 4 mps 751 mmHg 95%
    10:00 +1°C° 0.1 mm 4 mps 751 mmHg 94%
    11:00 +1°C° 0.1 mm 4 mps 751 mmHg 94%
    12:00 +1°C° 0.1 mm 4 mps 751 mmHg 94%
    13:00 +2°C° 0.1 mm 3 mps 750 mmHg 94%
    14:00 +2°C° 0.1 mm 3 mps 750 mmHg 94%
    15:00 +1°C° 0.2 mm 4 mps 750 mmHg 94%
    16:00 +1°C° 0.2 mm 4 mps 750 mmHg 93%
    17:00 +1°C° 0.2 mm 4 mps 750 mmHg 93%
    18:00 +1°C° 0.3 mm 4 mps 750 mmHg 91%
    19:00 0°C° 0.3 mm 5 mps 750 mmHg 90%
    20:00 0°C° 0.3 mm 5 mps 750 mmHg 88%
    21:00 0°C° 0.4 mm 5 mps 750 mmHg 89%
    22:00 0°C° 0.4 mm 5 mps 750 mmHg 89%
    23:00 -1°C° 0.4 mm 4 mps 750 mmHg 90%

    19 November, Monday

    Time Temperature Precipitation Wind Pressure Humidity
    00:00 -1°C° 0.2 mm 4 mps 750 mmHg 90%
    01:00 -1°C° 0.2 mm 4 mps 751 mmHg 91%
    02:00 -1°C° 0.2 mm 4 mps 751 mmHg 92%
    03:00 0°C° 0.1 mm 4 mps 751 mmHg 92%
    04:00 0°C° 0.1 mm 4 mps 751 mmHg 93%
    05:00 0°C° 0.1 mm 4 mps 751 mmHg 93%
    06:00 0°C° 0.1 mm 4 mps 751 mmHg 93%
    07:00 0°C° 0.1 mm 4 mps 751 mmHg 92%
    08:00 0°C° 0.1 mm 4 mps 752 mmHg 92%
    09:00 0°C° 0.2 mm 4 mps 752 mmHg 91%
    10:00 0°C° 0.2 mm 5 mps 752 mmHg 90%
    11:00 0°C° 0.2 mm 5 mps 753 mmHg 90%
    12:00 0°C° 0.3 mm 5 mps 753 mmHg 90%
    13:00 0°C° 0.3 mm 4 mps 753 mmHg 90%
    14:00 0°C° 0.3 mm 4 mps 753 mmHg 90%
    15:00 0°C° 0.2 mm 4 mps 753 mmHg 91%
    16:00 0°C° 0.2 mm 4 mps 753 mmHg 92%
    17:00 -1°C° 0.2 mm 4 mps 753 mmHg 92%
    18:00 -1°C° 0.1 mm 4 mps 753 mmHg 92%
    19:00 -1°C° 0.1 mm 4 mps 754 mmHg 92%
    20:00 0°C° 0.1 mm 3 mps 754 mmHg 92%
    21:00 0°C° 0.1 mm 3 mps 754 mmHg 93%
    22:00 0°C° 0.1 mm 3 mps 754 mmHg 93%
    23:00 -1°C° 0.1 mm 3 mps 755 mmHg 93%

    20 November, Tuesday

    Time Temperature Precipitation Wind Pressure Humidity
    00:00 -1°C° 0.1 mm 3 mps 755 mmHg 92%
    01:00 -1°C° 0.1 mm 3 mps 755 mmHg 92%
    02:00 -1°C° 0.1 mm 3 mps 755 mmHg 91%
    03:00 -2°C° 0 mm 3 mps 755 mmHg 91%
    04:00 -4°C° 0 mm 3 mps 755 mmHg 91%
    05:00 -5°C° 0 mm 3 mps 755 mmHg 91%
    06:00 -5°C° 0 mm 3 mps 755 mmHg 91%
    07:00 -5°C° 0 mm 3 mps 755 mmHg 91%
    08:00 -6°C° 0 mm 3 mps 755 mmHg 91%
    09:00 -5°C° 0 mm 3 mps 755 mmHg 89%
    10:00 -4°C° 0 mm 3 mps 755 mmHg 87%
    11:00 -4°C° 0 mm 3 mps 755 mmHg 86%
    12:00 -2°C° 0 mm 3 mps 755 mmHg 86%
    13:00 -2°C° 0 mm 3 mps 755 mmHg 87%
    14:00 -2°C° 0 mm 3 mps 755 mmHg 87%
    15:00 -2°C° 0 mm 3 mps 755 mmHg 88%
    16:00 -2°C° 0 mm 3 mps 754 mmHg 90%
    17:00 -2°C° 0 mm 3 mps 754 mmHg 91%
    18:00 -2°C° 0 mm 3 mps 754 mmHg 91%
    19:00 -2°C° 0 mm 3 mps 754 mmHg 91%
    20:00 -2°C° 0 mm 2 mps 754 mmHg 91%
    21:00 -3°C° 0 mm 2 mps 754 mmHg 91%
    22:00 -3°C° 0 mm 2 mps 754 mmHg 91%
    23:00 -3°C° 0 mm 2 mps 754 mmHg 91%

    21 November, Wednesday

    Time Temperature Precipitation Wind Pressure Humidity
    00:00 -3°C° 0 mm 2 mps 754 mmHg 91%
    01:00 -4°C° 0 mm 2 mps 753 mmHg 92%
    02:00 -4°C° 0 mm 2 mps 753 mmHg 92%
    03:00 -4°C° 0 mm 2 mps 753 mmHg 92%
    04:00 -4°C° 0 mm 2 mps 753 mmHg 92%
    05:00 -4°C° 0 mm 2 mps 753 mmHg 93%
    06:00 -4°C° 0 mm 2 mps 753 mmHg 93%
    07:00 -5°C° 0 mm 3 mps 753 mmHg 93%
    08:00 -5°C° 0 mm 3 mps 753 mmHg 93%
    09:00 -4°C° 0 mm 3 mps 752 mmHg 91%
    10:00 -2°C° 0 mm 3 mps 752 mmHg 89%
    11:00 -2°C° 0 mm 4 mps 752 mmHg 88%
    12:00 -2°C° 0 mm 4 mps 752 mmHg 88%
    13:00 -2°C° 0 mm 4 mps 752 mmHg 87%
    14:00 -2°C° 0 mm 4 mps 752 mmHg 87%
    15:00 -2°C° 0 mm 4 mps 751 mmHg 88%
    16:00 -3°C° 0 mm 4 mps 751 mmHg 89%
    17:00 -4°C° 0 mm 5 mps 751 mmHg 90%
    18:00 -3°C° 0 mm 4 mps 751 mmHg 90%
    19:00 -4°C° 0 mm 4 mps 751 mmHg 89%
    20:00 -4°C° 0 mm 4 mps 750 mmHg 89%
    21:00 -4°C° 0 mm 4 mps 750 mmHg 88%
    22:00 -4°C° 0 mm 4 mps 750 mmHg 88%
    23:00 -5°C° 0 mm 5 mps 750 mmHg 88%
    Show more